User: anonymous   Login
Location: Vancouver
(49.2500°N, 123.1330°W)
Time: 17:56:31
(UTC-08:00)
Language:

Cosmos 2333 Rocket - Orbit

View from above orbital plane
View from above orbital plane
View from above satellite
View from above satellite

Ground track
Ground track

The orbit data is extracted from the following two-line orbital elements,

1 24298U 96051B   16337.98598902  .00000133  00000-0  98096-4 0  9999
2 24298  70.8440 115.5823 0013858 124.8542 235.3884 14.12459103 44119
Epoch (UTC): 02 December 2016 23:39:49
Eccentricity: 0.0013858
inclination: 70.8440°
perigee height: 841 km
apogee height: 861 km
right ascension of ascending node: 115.5823°
argument of perigee: 124.8542°
revolutions per day: 14.12459103
mean anomaly at epoch: 235.3884°
orbit number at epoch: 4411

The dashed part of the orbit path shows where the satellite is in the earth's shadow,  

DLR